NOAA 16 DEB, 42344

Orbit data source: Space-Track

NOAA 16 DEB, 42344 is space debris in SSO originally from a launch on Thu, 21 Sep 2000 UTC launched from the Air Force Western Test Range (AFWTR). Debris objects in space refer to the collection of defunct objects orbiting the Earth. Examples of debris include non-operational satellites, rocket bodies, and fragments generated from explosions, collisions, or faulty payload assembly.

Loading next visibility...
Identifier
42344, 2000-055QL
Orbit
SSO
Country
Flag of USUS
Related business
Manufacturer
Unknown
Mission
Spacecraft
Bus & Motor
Unknown
Mass
Unknown
Launch date (UTC)
2000-09-21 (26 years ago)
Launch vehicle
Unknown
Launch site
Air Force Western Test Range (AFWTR)
Object type
Payload
Rocket body
Debris
Shape & HBR
Unknown shape, 0.1 m
Radar Cross Section
Medium (>0.1 m² and <1 m²)

Expand to show TLE details & history
Last TLE update: 1 day ago

TLE from 1 day ago
0 NOAA 16 DEB
1 42344U 00055QL  26169.82389311  .00007049  00000-0  14702-2 0  9992
2 42344  98.7370 306.9300 0025967 343.8506  16.1862 14.60052239529790
Epoch: 2026-06-18T19:46Z
TLE epoch observation values (Epoch: 2026-06-18T19:46:24.364Z)
Latitude
-0.00005°
Longitude
103.26681°
Altitude
678.34 km
Speed
7.527 km/s
True Right ascension
20h 27m 43s
True Declination
0° 00' 00"
Sunlit
Object was in full shadow at epoch
Visualization orbit readout
Latitude
Unknown
Longitude
Unknown
Altitude
Unknown
Speed
Unknown
Apparent Right ascension
Unknown
Apparent Declination
Unknown
Sunlit
N/A
Visualization observer readout
Local Sidereal Time
12:48:27
Azimuth
Unknown
Elevation
Unknown
Doppler factor
Unknown
Orbital elements
Apogee altitude
708.466 km
Perigee altitude
671.758 km
Semi-major axis
7,068.249 km
Eccentricity
0.0026
Inclination
98.737°
RAAN
306.93°
Arg. of periapsis
343.8506°
True anomaly
16.26941°
Mean anomaly
16.1862°
Eccentric anomaly
16.22778°
Mean motion
3.65238 °/min
Orbital period
98.57 mins
BSTAR
0.0014702
Loading maneuver chart data...
Computing Atmospheric mass density...
Loading historical data...
Loading historical data...
Loading historical data...
Loading historical data...
Loading historical data...
Loading historical data...
Loading historical data...

Documentation

Showing up to 5 results
|